EW9807 Weather Reports


Display with metric or nautical units.
time (UTC)temp
F
wind
direction
speed
MPH
gust
MPH
rain 1hr
in
rain 24hr
in
rain mn
in
humidity
%
barometer
mb
20260506175554 78 197 3.0 9.0 0.00 0.00 0.00 66 1014.8
20260506175102 78 240 4.0 9.0 0.00 0.00 0.00 66 1014.7
20260506174546 79 171 5.0 12.0 0.00 0.00 0.00 65 1014.7
20260506174058 80 232 4.0 12.0 0.00 0.00 0.00 65 1014.6
20260506173547 80 179 4.0 9.0 0.00 0.00 0.00 65 1014.6
20260506173054 81 249 3.0 7.0 0.00 0.00 0.00 64 1014.6
20260506172602 81 203 3.0 9.0 0.00 0.00 0.00 64 1014.7
20260506171545 79 172 2.0 7.0 0.00 0.00 0.00 69 1014.8
20260506171056 79 171 2.0 8.0 0.00 0.00 0.00 67 1014.9
20260506170603 78 181 5.0 14.0 0.00 0.00 0.00 68 1014.9
20260506170125 76 214 4.0 14.0 0.00 0.00 0.00 68 1015.0
20260506165602 76 201 3.0 12.0 0.00 0.00 0.00 70 1015.1
20260506165051 76 204 3.0 6.0 0.00 0.00 0.00 70 1015.3
20260506164602 76 236 3.0 10.0 0.00 0.00 0.00 71 1015.3
20260506164050 76 192 5.0 10.0 0.00 0.00 0.00 70 1015.5
20260506163108 76 195 5.0 13.0 0.00 0.00 0.00 69 1015.5
20260506162046 76 243 3.0 10.0 0.00 0.00 0.00 71 1015.6
20260506161554 76 240 2.0 11.0 0.00 0.00 0.00 71 1015.8
20260506161046 76 182 5.0 11.0 0.00 0.00 0.00 70 1015.9
20260506160558 76 232 2.0 11.0 0.00 0.00 0.00 71 1015.9
20260506160049 75 229 4.0 11.0 0.00 0.00 0.00 72 1016.1
20260506155548 74 169 4.0 9.0 0.00 0.00 0.00 74 1016.2
20260506155101 74 227 4.0 9.0 0.00 0.00 0.00 74 1016.2
20260506154550 74 159 3.0 9.0 0.00 0.00 0.00 75 1016.3
20260506153552 73 176 3.0 8.0 0.00 0.00 0.00 74 1016.5
20260506153057 73 252 3.0 9.0 0.00 0.00 0.00 75 1016.4
20260506152602 73 229 4.0 12.0 0.00 0.00 0.00 76 1016.4
20260506152052 72 252 7.0 12.0 0.00 0.00 0.00 75 1016.4
20260506151602 72 240 4.0 9.0 0.00 0.00 0.00 75 1016.3
20260506151050 72 264 3.0 12.0 0.00 0.00 0.00 75 1016.3
20260506145555 72 182 4.0 10.0 0.00 0.00 0.00 74 1016.2
20260506145046 72 143 5.0 11.0 0.00 0.00 0.00 73 1016.4
20260506144557 73 213 6.0 12.0 0.00 0.00 0.00 74 1016.3
20260506143052 72 177 2.0 10.0 0.00 0.00 0.00 76 1016.0
20260506142557 72 252 2.0 5.0 0.00 0.00 0.00 76 1015.9
20260506140556 71 219 3.0 9.0 0.00 0.00 0.00 79 1015.9
20260506140045 71 179 4.0 9.0 0.00 0.00 0.00 80 1015.7
20260506135555 70 189 5.0 11.0 0.00 0.00 0.00 81 1015.4
20260506135101 69 212 4.0 11.0 0.00 0.00 0.00 83 1015.4
20260506134102 69 178 4.0 9.0 0.00 0.00 0.00 84 1015.2
20260506133553 69 208 2.0 9.0 0.00 0.00 0.00 84 1015.1
20260506133103 69 167 5.0 9.0 0.00 0.00 0.00 84 1015.1
20260506132549 68 229 2.0 8.0 0.00 0.00 0.00 85 1015.2
20260506132059 68 176 4.0 8.0 0.00 0.00 0.00 85 1015.2
20260506131549 68 173 3.0 6.0 0.00 0.00 0.00 85 1015.2
20260506131055 68 172 3.0 11.0 0.00 0.00 0.00 86 1015.1
20260506130544 68 178 2.0 11.0 0.00 0.00 0.00 86 1015.1
20260506130055 68 193 5.0 9.0 0.00 0.00 0.00 86 1014.9
20260506125559 67 186 2.0 7.0 0.00 0.00 0.00 88 1015.1
20260506125051 67 186 4.0 8.0 0.00 0.00 0.00 88 1015.2
20260506124600 66 141 4.0 8.0 0.00 0.00 0.00 88 1015.3
20260506124052 66 153 2.0 7.0 0.00 0.00 0.00 88 1015.3
20260506123601 66 172 2.0 7.0 0.00 0.00 0.00 88 1015.1
20260506123106 66 196 1.0 6.0 0.00 0.00 0.00 88 1015.0
20260506122548 66 174 4.0 6.0 0.00 0.00 0.00 88 1015.1
20260506122057 65 182 3.0 6.0 0.00 0.00 0.00 88 1015.0
20260506121546 65 217 1.0 6.0 0.00 0.00 0.00 88 1015.0
20260506121059 65 207 1.0 5.0 0.00 0.00 0.00 88 1014.9
20260506115547 65 175 1.0 3.0 0.00 0.00 0.00 88 1014.8
20260506115057 64 205 1.0 5.0 0.00 0.00 0.00 88 1014.7
20260506114100 64 202 2.0 5.0 0.00 0.00 0.00 88 1014.6
20260506113551 64 193 2.0 5.0 0.00 0.00 0.00 88 1014.6
20260506113101 64 152 3.0 5.0 0.00 0.00 0.00 88 1014.6
20260506112058 64 206 2.0 4.0 0.00 0.00 0.00 87 1014.6
20260506111549 63 191 1.0 4.0 0.00 0.00 0.00 87 1014.6
20260506111059 63 141 1.0 4.0 0.00 0.00 0.00 87 1014.5
20260506110551 63 191 1.0 4.0 0.00 0.00 0.00 86 1014.3
20260506110507 63 191 1.0 4.0 0.00 0.00 0.00 87 1013.3
20260506110133 63 186 1.0 5.0 0.00 0.00 0.00 86 1014.3
20260506110025 63 201 0.0 5.0 0.00 0.00 0.00 86 1013.3
20260506105552 63 238 2.0 5.0 0.00 0.00 0.00 86 1014.4
20260506105102 64 207 2.0 4.0 0.00 0.00 0.00 86 1014.4
20260506104552 64 221 1.0 4.0 0.00 0.00 0.00 85 1014.2
20260506104056 64 205 1.0 5.0 0.00 0.00 0.00 86 1014.1
20260506103605 64 186 2.0 7.0 0.00 0.00 0.00 86 1013.9
20260506103055 64 211 3.0 5.0 0.00 0.00 0.00 85 1013.9
20260506102601 64 205 2.0 6.0 0.00 0.00 0.00 85 1013.8
20260506102106 64 186 3.0 6.0 0.00 0.00 0.00 85 1013.7
20260506101549 64 160 3.0 5.0 0.00 0.00 0.00 85 1013.5
20260506100057 64 188 2.0 5.0 0.00 0.00 0.00 84 1013.3
20260506095601 64 176 2.0 8.0 0.00 0.00 0.00 84 1013.4
20260506095050 64 172 3.0 8.0 0.00 0.00 0.00 84 1013.5
20260506094556 64 167 2.0 8.0 0.00 0.00 0.00 84 1013.6
20260506094048 64 175 3.0 8.0 0.00 0.00 0.00 83 1013.5
20260506093102 64 177 2.0 5.0 0.00 0.00 0.00 82 1013.4
20260506092548 64 232 2.0 5.0 0.00 0.00 0.00 82 1013.3
20260506092056 64 190 1.0 4.0 0.00 0.00 0.00 81 1013.2
20260506091055 65 195 1.0 2.0 0.00 0.00 0.00 81 1013.2
20260506090606 65 203 1.0 2.0 0.00 0.00 0.00 81 1013.1
20260506085602 65 172 0.0 3.0 0.00 0.00 0.00 80 1013.2
20260506085050 65 172 1.0 3.0 0.00 0.00 0.00 80 1013.2
20260506084047 65 189 1.0 4.0 0.00 0.00 0.00 79 1013.2
20260506083558 65 180 2.0 4.0 0.00 0.00 0.00 79 1013.2
20260506083046 65 200 1.0 4.0 0.00 0.00 0.00 79 1013.3
20260506082554 65 108 0.0 6.0 0.00 0.00 0.00 78 1013.2
20260506082059 65 179 2.0 6.0 0.00 0.00 0.00 78 1013.3
20260506081548 65 186 2.0 4.0 0.00 0.00 0.00 77 1013.2
20260506081056 65 170 2.0 4.0 0.00 0.00 0.00 77 1013.3
20260506073049 64 165 0.0 0.0 0.00 0.00 0.00 73 1013.5
20260506072047 64 188 0.0 2.0 0.00 0.00 0.00 73 1013.8
20260506071101 64 188 0.0 1.0 0.00 0.00 0.00 71 1014.0
20260506062052 66 188 0.0 2.0 0.00 0.00 0.00 65 1014.1
20260506061556 66 188 0.0 2.0 0.00 0.00 0.00 65 1014.1
20260506061047 66 188 0.0 3.0 0.00 0.00 0.00 64 1014.1
20260506060557 67 188 1.0 5.0 0.00 0.00 0.00 64 1014.1
20260506060107 67 190 2.0 5.0 0.00 0.00 0.00 63 1014.1
20260506051054 68 180 2.0 4.0 0.00 0.00 0.00 58 1013.7
20260506050545 68 200 2.0 4.0 0.00 0.00 0.00 57 1013.8
20260506050111 68 162 1.0 7.0 0.00 0.00 0.00 57 1013.8
20260506045046 68 182 0.0 4.0 0.00 0.00 0.00 56 1014.0
20260506044558 69 180 2.0 4.0 0.00 0.00 0.00 56 1014.2
20260506044047 69 169 0.0 4.0 0.00 0.00 0.00 55 1014.1
20260506043600 69 187 1.0 4.0 0.00 0.00 0.00 54 1014.1
20260506043051 69 175 1.0 4.0 0.00 0.00 0.00 54 1014.0
20260506042046 70 200 1.0 4.0 0.00 0.00 0.00 53 1013.9
20260506041559 70 84 1.0 4.0 0.00 0.00 0.00 52 1013.8
20260506041046 70 95 2.0 4.0 0.00 0.00 0.00 52 1013.7
20260506040557 69 125 1.0 4.0 0.00 0.00 0.00 52 1013.8
20260506040119 69 180 1.0 4.0 0.00 0.00 0.00 52 1013.8
20260506035558 69 166 1.0 5.0 0.00 0.00 0.00 53 1013.7
20260506035047 69 113 2.0 4.0 0.00 0.00 0.00 53 1014.0
20260506033603 69 163 0.0 2.0 0.00 0.00 0.00 55 1014.2
20260506033052 69 163 0.0 2.0 0.00 0.00 0.00 54 1014.1
20260506032557 69 163 0.0 3.0 0.00 0.00 0.00 55 1014.2
20260506032047 69 163 1.0 3.0 0.00 0.00 0.00 54 1014.2
20260506031103 69 158 0.0 0.0 0.00 0.00 0.00 54 1014.0
20260506030549 69 157 0.0 0.0 0.00 0.00 0.00 53 1014.1
20260506030503 69 158 0.0 0.0 0.00 0.00 0.00 53 1013.2
20260506030129 69 158 0.0 1.0 0.00 0.00 0.00 53 1014.0
20260506030023 69 158 0.0 1.0 0.00 0.00 0.00 53 1013.1
20260506025547 70 158 0.0 1.0 0.00 0.00 0.00 52 1014.0
20260506025059 70 157 0.0 1.0 0.00 0.00 0.00 52 1014.1
20260506024553 70 158 1.0 2.0 0.00 0.00 0.00 51 1014.0
20260506023551 70 211 1.0 3.0 0.00 0.00 0.00 52 1014.0
20260506023100 70 158 1.0 4.0 0.00 0.00 0.00 51 1014.0
20260506022546 70 158 1.0 4.0 0.00 0.00 0.00 52 1014.0
20260506022054 70 186 1.0 4.0 0.00 0.00 0.00 51 1014.1
20260506021603 70 192 1.0 3.0 0.00 0.00 0.00 51 1014.1
20260506021052 70 180 1.0 4.0 0.00 0.00 0.00 51 1014.1
20260506020557 71 153 1.0 4.0 0.00 0.00 0.00 51 1013.9
20260506020047 71 169 1.0 4.0 0.00 0.00 0.00 51 1014.0
20260506015104 71 155 0.0 3.0 0.00 0.00 0.00 51 1013.9
20260506014549 71 155 1.0 3.0 0.00 0.00 0.00 51 1013.7
20260506014058 71 144 1.0 3.0 0.00 0.00 0.00 52 1013.8
20260506013546 70 188 0.0 0.0 0.00 0.00 0.00 52 1013.9
20260506013055 70 188 0.0 0.0 0.00 0.00 0.00 53 1013.9
20260506012559 70 188 0.0 0.0 0.00 0.00 0.00 53 1013.9
20260506012045 71 188 0.0 0.0 0.00 0.00 0.00 53 1013.8
20260506011557 71 188 0.0 0.0 0.00 0.00 0.00 52 1013.7
20260506011103 71 188 0.0 0.0 0.00 0.00 0.00 52 1013.6
20260506010551 71 188 0.0 0.0 0.00 0.00 0.00 51 1013.7
20260506010054 72 188 0.0 0.0 0.00 0.00 0.00 51 1013.7
20260506005600 72 188 0.0 0.0 0.00 0.00 0.00 51 1013.8
20260506005049 72 188 0.0 0.0 0.00 0.00 0.00 50 1013.8
20260506004050 73 188 0.0 0.0 0.00 0.00 0.00 49 1013.9
20260506003106 74 188 0.0 2.0 0.00 0.00 0.00 47 1013.9
20260506002547 74 188 0.0 3.0 0.00 0.00 0.00 46 1013.8
20260506000555 75 162 2.0 5.0 0.00 0.00 0.00 44 1013.7
20260505235550 75 146 3.0 5.0 0.00 0.00 0.00 44 1013.5
20260505234552 76 199 2.0 7.0 0.00 0.00 0.00 44 1013.6
20260505234103 76 183 1.0 3.0 0.00 0.00 0.00 43 1013.7
20260505233550 76 154 1.0 6.0 0.00 0.00 0.00 43 1013.7
20260505233059 76 178 2.0 6.0 0.00 0.00 0.00 43 1013.7
20260505232603 76 161 2.0 5.0 0.00 0.00 0.00 43 1013.7
20260505232051 77 165 1.0 8.0 0.00 0.00 0.00 43 1013.5
20260505231557 77 197 4.0 9.0 0.00 0.00 0.00 42 1013.5
20260505231048 77 245 4.0 9.0 0.00 0.00 0.00 42 1013.3
20260505230555 77 184 3.0 7.0 0.00 0.00 0.00 41 1013.4
20260505230106 77 199 2.0 8.0 0.00 0.00 0.00 40 1013.3
20260505225551 78 199 4.0 8.0 0.00 0.00 0.00 40 1013.4
20260505225041 78 231 3.0 8.0 0.00 0.00 0.00 40 1013.3
20260505224554 78 172 3.0 8.0 0.00 0.00 0.00 40 1013.3
20260505224041 78 158 3.0 8.0 0.00 0.00 0.00 39 1013.3
20260505223551 78 216 4.0 8.0 0.00 0.00 0.00 39 1013.3
20260505222551 78 164 4.0 13.0 0.00 0.00 0.00 40 1013.1
20260505222058 78 188 5.0 13.0 0.00 0.00 0.00 40 1013.1
20260505221548 79 187 3.0 9.0 0.00 0.00 0.00 40 1013.1
20260505221058 79 117 5.0 8.0 0.00 0.00 0.00 39 1013.1
20260505220547 79 205 3.0 8.0 0.00 0.00 0.00 39 1013.0
20260505220056 79 65 4.0 8.0 0.00 0.00 0.00 37 1013.1
20260505215054 79 160 3.0 9.0 0.00 0.00 0.00 38 1013.2
20260505214602 79 203 3.0 10.0 0.00 0.00 0.00 39 1013.3
20260505214051 79 86 3.0 6.0 0.00 0.00 0.00 38 1013.3
20260505213558 79 157 2.0 8.0 0.00 0.00 0.00 38 1013.4
20260505213102 79 165 3.0 10.0 0.00 0.00 0.00 38 1013.2
20260505212102 79 156 3.0 7.0 0.00 0.00 0.00 40 1013.2
20260505211550 79 177 3.0 9.0 0.00 0.00 0.00 41 1013.4
20260505211057 79 139 5.0 9.0 0.00 0.00 0.00 41 1013.5
20260505210548 79 204 3.0 9.0 0.00 0.00 0.00 40 1013.4
20260505210125 79 129 2.0 9.0 0.00 0.00 0.00 40 1013.4
20260505210018 78 106 1.0 9.0 0.00 0.00 0.00 40 1012.5
20260505205547 79 174 4.0 8.0 0.00 0.00 0.00 41 1013.5
20260505205056 79 174 3.0 6.0 0.00 0.00 0.00 40 1013.5
20260505204544 79 176 2.0 10.0 0.00 0.00 0.00 41 1013.7
20260505204056 79 155 2.0 10.0 0.00 0.00 0.00 41 1013.8
20260505203052 79 162 4.0 8.0 0.00 0.00 0.00 42 1014.0
20260505202556 79 198 5.0 10.0 0.00 0.00 0.00 41 1014.0
20260505202047 78 181 3.0 12.0 0.00 0.00 0.00 40 1014.0
20260505201555 78 259 5.0 12.0 0.00 0.00 0.00 41 1014.1
20260505201101 78 215 4.0 8.0 0.00 0.00 0.00 41 1014.1
20260505200547 78 169 3.0 7.0 0.00 0.00 0.00 41 1014.1
20260505200057 78 169 3.0 10.0 0.00 0.00 0.00 41 1014.2
20260505195601 78 206 5.0 10.0 0.00 0.00 0.00 40 1014.3
20260505195050 78 165 3.0 12.0 0.00 0.00 0.00 40 1014.4
20260505194602 78 195 4.0 12.0 0.00 0.00 0.00 40 1014.6
20260505194054 78 248 4.0 8.0 0.00 0.00 0.00 44 1014.6
20260505193600 77 151 3.0 9.0 0.00 0.00 0.00 43 1014.6
20260505193050 78 156 5.0 9.0 0.00 0.00 0.00 43 1014.6
20260505192554 78 183 3.0 9.0 0.00 0.00 0.00 42 1014.6
20260505191551 78 228 4.0 7.0 0.00 0.00 0.00 43 1014.7
20260505191058 78 198 1.0 9.0 0.00 0.00 0.00 44 1014.6
20260505190606 77 182 3.0 9.0 0.00 0.00 0.00 44 1014.9
20260505190047 78 127 4.0 9.0 0.00 0.00 0.00 42 1015.0
20260505185554 77 181 3.0 8.0 0.00 0.00 0.00 44 1014.9
20260505185103 77 78 2.0 8.0 0.00 0.00 0.00 45 1015.1
20260505184103 76 236 3.0 10.0 0.00 0.00 0.00 45 1015.2
20260505183552 76 190 1.0 8.0 0.00 0.00 0.00 46 1015.2
20260505182055 77 263 3.0 10.0 0.00 0.00 0.00 43 1015.4
20260505181606 77 184 4.0 10.0 0.00 0.00 0.00 45 1015.6
20260505181502 77 203 3.0 10.0 0.00 0.00 0.00 45 1014.8
20260505180602 77 175 5.0 9.0 0.00 0.00 0.00 44 1015.9
20260505180050 76 173 4.0 9.0 0.00 0.00 0.00 44 1015.9